This is the latest recevied weather packets stored in our database for station/object OE-11204. If no packets are shown the sender has not sent any weather packets the latest 10 day(s).
| Time | Temp. | Humidity | Pressure | Rain* | Wind** | Luminosity | Snow |
|---|---|---|---|---|---|---|---|
| 1788140489 | 15° C | 87% | 1017.7 hPa | 0 mm | - | 0 W/m² | - |
| 1788140116 | 15° C | 86% | 1017.6 hPa | 0 mm | - | 0 W/m² | - |
| 1788139516 | 15° C | 86% | 1017.5 hPa | 0 mm | - | 0 W/m² | - |
| 1788138688 | 15.56° C | 86% | 1017.4 hPa | 0 mm | - | 0 W/m² | - |
| 1788138316 | 15.56° C | 85% | 1017.5 hPa | 0 mm | - | 0 W/m² | - |
| 1788137716 | 15.56° C | 85% | 1017.5 hPa | 0 mm | - | 0 W/m² | - |
| 1788136888 | 15.56° C | 85% | 1017.6 hPa | 0 mm | - | 0 W/m² | - |
| 1788136516 | 15.56° C | 84% | 1017.5 hPa | 0 mm | - | 0 W/m² | - |
| 1788135916 | 15.56° C | 85% | 1017.5 hPa | 0 mm | - | 0 W/m² | - |
| 1788135089 | 16.11° C | 82% | 1017.4 hPa | 0 mm | - | 0 W/m² | - |
| 1788134716 | 16.11° C | 83% | 1017.5 hPa | 0 mm | - | 0 W/m² | - |
| 1788134116 | 16.11° C | 82% | 1017.4 hPa | 0 mm | - | 0 W/m² | - |
| 1788133527 | 16.67° C | 82% | 1017.3 hPa | 0 mm | - | 0 W/m² | - |
| 1788132915 | 16.67° C | 81% | 1017.3 hPa | 0 mm | - | 0 W/m² | - |
| 1788132315 | 16.67° C | 80% | 1017.2 hPa | 0 mm | - | 0 W/m² | - |
| 1788131716 | 17.22° C | 81% | 1017 hPa | 0 mm | - | 0 W/m² | - |
| 1788131116 | 17.78° C | 80% | 1017 hPa | 0 mm | - | 0 W/m² | - |
| 1788130516 | 17.78° C | 79% | 1016.9 hPa | 0 mm | - | 0 W/m² | - |
| 1788129689 | 17.78° C | 80% | 1016.9 hPa | 0 mm | - | 0 W/m² | - |
| 1788129316 | 18.33° C | 78% | 1016.7 hPa | 0 mm | - | 0 W/m² | - |
| 1788128716 | 18.33° C | 77% | 1016.5 hPa | 0 mm | - | 0 W/m² | - |
| 1788127890 | 18.89° C | 78% | 1016.3 hPa | 0 mm | - | 0 W/m² | - |
| 1788127516 | 19.44° C | 74% | 1016.2 hPa | 0 mm | - | 0 W/m² | - |
| 1788126916 | 19.44° C | 73% | 1016.1 hPa | 0 mm | - | 0 W/m² | - |
| 1788126089 | 19.44° C | 74% | 1016 hPa | 0 mm | - | 0 W/m² | - |
* Rain latest hour (hover to see other rain measurements)
** Current wind speed in m/s (hover to see current wind gust speed)